Regional Weather Roundup
Issued by NWS Charleston, SC

Current Version | Previous Version | Text Only | Print | Product List | Glossary Off
Versions: 1 2 3 4 5 6 7 8 9 10 11 12 13 14 15 16 17 18 19 20 21 22 23 24 25 26 27 28 29 30 31 32 33 34 35 36 37 38 39 40 41 42 43 44 45 46 47 48 49 50

000
ASUS42 KCHS 262327
RWRCHS

REGIONAL WEATHER ROUNDUP
NATIONAL WEATHER SERVICE CHARLESTON SC
700 PM EDT SUN APR 26 2015

NOTE: "FAIR" INDICATES FEW OR NO CLOUDS BELOW 12,000 FEET WITH NO
SIGNIFICANT WEATHER AND/OR OBSTRUCTIONS TO VISIBILITY.

NOT ALL STATIONS ARE QUALITY CONTROLLED BY THE NATIONAL
WEATHER SERVICE. USE DATA WITH CAUTION...ESPECIALLY
DEWPOINT OBSERVATIONS.

SCZ027-030-031-034>040-042>050-270000-
...SOUTHEAST SOUTH CAROLINA...

CITY           SKY/WX    TMP DP  RH WIND       PRES   REMARKS
N CHARLESTON   MOSUNNY   84  57  39 W7G17     29.59R
WATERFRONT PRK   N/A     84 N/A N/A W9G15       N/A
MOUNT PLEASANT FAIR      70  64  83 MISG      29.62R
PINOPOLIS      NOT AVBL
MONCKS CORNER  MOCLDY    73  63  68 N10       29.62R
SUMMERVILLE    FAIR      77  64  65 N9G18     29.62R
BEAUFORT MCAS  SUNNY     84  58  40 W8        29.61R
BEAUFORT ARPT  FAIR      84  61  45 W13       29.60S
HILTON HEAD IS SUNNY     84  57  39 W10G17    29.62S
WALTERBORO     CLEAR     81  57  44 W9        29.61R
ALLENDALE      FAIR      81  61  50 CALM      29.61R

...SOUTHERN MIDLANDS AND PEE DEE...

CITY           SKY/WX    TMP DP  RH WIND       PRES   REMARKS
GEORGETOWN     NOT AVBL
KINGSTREE      NOT AVBL
ORANGEBURG     PTSUNNY   71  58  63 NE12      29.63R
BARNWELL       FAIR      82  61  47 W3        29.61S
AIKEN          CLOUDY    70  57  64 NE12G17   29.67R
MANNING        CLOUDY    63  50  63 N7        29.67R
COLUMBIA       CLOUDY    64  54  69 NE13      29.66R
SUMTER         CLOUDY    61  55  80 NE12      29.66R
FLORENCE       CLOUDY    58  50  75 NE14      29.69R
MYRTLE BEACH   RAIN      63  54  72 NE9       29.68R
N MYRTLE BEACH CLOUDY    61  55  81 NE15      29.66R

$$

GAZ063-065-086>088-099>101-113>116-118-119-134>141-150-270000-
...SOUTHEAST GEORGIA...

CITY           SKY/WX    TMP DP  RH WIND       PRES   REMARKS
SAVANNAH ARPT  MOSUNNY   84  51  31 W12       29.62R
HUNTER AAF     SUNNY     85  55  35 W14       29.60R
FORT STEWART   SUNNY     85  53  32 W12       29.62R
STATESBORO       N/A     82  61  48 W8        29.64R
SYLVANIA       PTCLDY    81  64  55 CALM      29.63S
CLAXTON        FAIR      82  59  44 W8        29.64R

...CSRA...CENTRAL AND FAR SOUTHEAST GEORGIA...

CITY           SKY/WX    TMP DP  RH WIND       PRES   REMARKS
THOMSON        PTSUNNY   80  68  66 CALM      29.67R
AUGUSTA-BUSH   MOSUNNY   82  58  43 W8G17     29.60R
AUGUSTA-DANIEL PTSUNNY   82  59  45 VRB5      29.62R
SWAINSBORO     NOT AVBL
VIDALIA        SUNNY     82  59  44 W7        29.66R
EASTMAN        FAIR      83  60  44 W5        29.69R
HAZLEHURST     FAIR      84  56  38 W3        29.66R
ALMA           MOSUNNY   83  61  47 W8        29.66S
WAYCROSS       SUNNY     88  64  44 W9        29.66S
JESUP          FAIR      86  64  48 W8        29.66R
BAXLEY         FAIR      84  61  45 W6        29.66R
BRUNSWICK      SUNNY     86  54  32 W9        29.65S
SAINT SIMONS   SUNNY     86  58  38 W9G18     29.64S

$$

SCZ027-028-034-036>038-045-046-048>050-GAZ119-141-270000-
...LAKE AND SUPPLEMENTAL COASTAL OBSERVATIONS...

STATION/POSITION TIME  TEMP    WIND        PRES    WAVE   SWELL
                       AIR SEA DIR/SP/G            HT/PER HT/PER/DIR
                 (UTC) (F)     (DEG/KT/KT) (MB)    (FT/S) (FT/S/D)
UPR LAKE MARION  NOT AVBL
WINYAH BAY       2200   66      60/ 14     1002.0S
LAKE MURRAY      2200   63      30/  6/ 10 1003.4R
ACE BASIN NERRS  NOT AVBL
FORT PULASKI     2200   85 72  270/ 15/ 19 1003.1S
SAPELO ISLAND    2300   85     260/ 11     1003.0S

$$

ANZ835-935-AMZ111-154-330-350-352-354-370-450-454-472-270000-
...C-MAN AND BUOY OBSERVATIONS...

STATION/POSITION TIME  TEMP    WIND        PRES    WAVE   SWELL
                       AIR SEA DIR/SP/G            HT/PER HT/PER/DIR
                 (UTC) (F)     (DEG/KT/KT) (MB)    (FT/S) (FT/S/D)
BUOY 41004       2250   73 72  220/ 17/ 21 1001.2S   4/ 6   2/ 8
BUOY 41008       2250   76 72  210/  8/  8 1003.6R   2/ 6   2/140/ 6
FOLLY BEACH CMAN 2300   83     270/  7/ 10 1002.3R
CAPERS NEARSHORE 2208   73     230/ 16/ 19 1001.7R
FRIPP NEARSHORE  2200   78     270/  8/ 10 1002.2R


STATION/POSITION TIME  TEMP    WIND        PRES    WAVE   SWELL
                       AIR SEA DIR/SP/G            HT/PER HT/PER/DIR
                 (UTC) (F)     (DEG/KT/KT) (MB)    (FT/S) (FT/S/D)
5E ST. MARYS GA  2221      71                N/A     2/ 5
FRYING PAN BUOY  2250   63 71   40/ 14/ 16 1004.2F   5/ 8   3/200/ 8
BUOY 41025       2250   56 78  360/ 21/ 27 1004.0R   8/10
CAPE LOOKOUT NC  2300   54     360/ 13/ 17 1005.3R
BUOY 41002       2250   72 71  310/ 14/ 16 1003.2R   8/ 8   7/240/ 8
BUOY 41010       2220   80 79  270/ 10/ 10 1006.3F
ST AUGUSTINE FL  2300   84 68  240/  8/ 10 1005.6R


$$


USA.gov is the U.S. government's official web portal to all federal, state and local government web resources and services.